STARLINK-2516, 48283

Orbit data source: Space-Track

STARLINK-2516, 48283 is a payload satellite owned by SpaceX/Seattle (US) in LEO that was launched on Thu, 29 Apr 2021 UTC via an FALCON 9 launch vehicle from the Air Force Eastern Test Range (AFETR). Payload-class satellites include a variety of spacecraft equipped with specific instruments for various scientific and technological missions. These include communications satellites like Starlink; space stations such as the ISS; scientific satellites like the Hubble; Earth observation satellites from companies like Planet Labs, Umbra, and HawkEye 360; GPS; miniature CubeSats for education and research; and military/defense satellites.

Loading next visibility...
Identifier
48283, 2021-036H
Orbit
LEO
Country
Flag of USUS
Related business
Manufacturer
SpaceX/Seattle
Mission
Operational Commercial Communications
Bus & Motor
STARLINK, Unknown motor
Mass
260 kg wet, ~248 kg dry
Launch date (UTC)
2021-04-29 (4 years ago)
Launch vehicle
FALCON 9
Launch site
Air Force Eastern Test Range (AFETR)
Object type
Payload
Rocket body
Debris
Shape & HBR
Box + 1 Pan, 10.1 m
Radar Cross Section
13.562 m², Large (>1 m²)

Expand to show TLE details & history
Last TLE update: 12 hours ago

TLE from 12 hours ago
0 STARLINK-2516
1 48283U 21036H   25292.61131593  .00017154  00000-0  11664-2 0  9994
2 48283  53.0555 354.9397 0001258  84.1714 275.9419 15.06440925247052
Epoch: 2025-10-19T14:40Z
TLE epoch observation values (Epoch: 2025-10-19T14:40:17.696Z)
Latitude
0.00003°
Longitude
106.5405°
Altitude
547.875 km
Speed
7.589 km/s
True Right ascension
23h 39m 45s
True Declination
0° 00' 00"
Sunlit
Object was in full shadow at epoch
Visualization orbit readout
Latitude
Unknown
Longitude
Unknown
Altitude
Unknown
Speed
Unknown
Apparent Right ascension
Unknown
Apparent Declination
Unknown
Sunlit
N/A
Visualization observer readout
Local Sidereal Time
22:02:25
Azimuth
Unknown
Elevation
Unknown
Doppler factor
Unknown
Orbital elements
Apogee altitude
548.228 km
Perigee altitude
546.485 km
Semi-major axis
6,925.494 km
Eccentricity
0.00013
Inclination
53.0555°
RAAN
354.9397°
Arg. of periapsis
84.1714°
True anomaly
275.92756°
Mean anomaly
275.9419°
Eccentric anomaly
275.93473°
Mean motion
3.76589 °/min
Orbital period
95.6 mins
BSTAR
0.0011664
Loading maneuver chart data...
Computing Atmospheric mass density...
Loading historical data...
Loading historical data...
Loading historical data...
Loading historical data...
Loading historical data...
Loading historical data...
Loading historical data...

Documentation

Showing up to 5 results
|